Terug naar catalogus

HULIANWANG DIGUI-03

ActiefCommunicatiePO
NORAD 62325·PAYLOAD·🇨🇳 China

Gelanceerd Dec 16, 2024 vanaf Wenchang Space Launch Site

Loading…

Volgende Passages (komende 24 uur)

TLE

VersSource: Space-Track

Epoch: Sep 14, 2026, 21:26 UTC

1 62325U 24240C   26257.89313990  .00000036  00000-0  50895-4 0  9994
2 62325  86.4976 312.8768 0001716  90.8755 269.2576 13.24412754 84512

Volg HULIANWANG DIGUI-03 in realtime met AllMySat

Download on the App Store